SV7RNH Weather Reports


Display with metric or nautical units.
time (UTC)temp
F
wind
direction
speed
MPH
gust
MPH
rain 1hr
in
rain 24hr
in
rain mn
in
humidity
%
barometer
mb
20260904001003 75 0 0.0 4.0 0.00 0.00 0.00 61 1014.8
20260904000504 74 0 0.0 4.0 0.00 0.00 0.00 62 1014.7
20260904000004 74 328 1.0 4.0 0.00 0.00 0.00 63 1014.7
20260903235503 74 0 0.0 4.0 0.00 0.00 0.00 63 1014.7
20260903235003 74 31 1.0 5.0 0.00 0.00 0.00 62 1014.7
20260903234503 74 20 2.0 5.0 0.00 0.00 0.00 62 1014.7
20260903234004 74 0 0.0 6.0 0.00 0.00 0.00 60 1014.6
20260903233503 75 93 1.0 6.0 0.00 0.00 0.00 60 1014.7
20260903233003 75 34 1.0 4.0 0.00 0.00 0.00 60 1015.0
20260903232503 75 26 1.0 4.0 0.00 0.00 0.00 60 1015.0
20260903232004 75 0 0.0 4.0 0.00 0.00 0.00 61 1015.0
20260903231504 74 63 1.0 3.0 0.00 0.00 0.00 62 1015.1
20260903231003 74 0 0.0 2.0 0.00 0.00 0.00 62 1015.1
20260903230503 75 0 0.0 2.0 0.00 0.00 0.00 61 1015.2
20260903230003 75 0 0.0 2.0 0.00 0.00 0.00 61 1015.2
20260903225504 75 0 0.0 3.0 0.00 0.00 0.00 61 1015.2
20260903225003 75 0 0.0 3.0 0.00 0.00 0.00 61 1015.3
20260903224503 75 19 1.0 4.0 0.00 0.00 0.00 61 1015.2
20260903224003 75 0 0.0 4.0 0.00 0.00 0.00 61 1015.3
20260903223503 75 0 0.0 4.0 0.00 0.00 0.00 61 1015.3
20260903223003 75 251 2.0 4.0 0.00 0.00 0.00 61 1015.3
20260903222504 75 286 1.0 4.0 0.00 0.00 0.00 61 1015.2
20260903222004 75 0 0.0 3.0 0.00 0.00 0.00 61 1015.2
20260903221503 75 0 0.0 4.0 0.00 0.00 0.00 61 1015.2
20260903221003 75 25 1.0 4.0 0.00 0.00 0.00 61 1015.3
20260903220504 75 0 0.0 5.0 0.00 0.00 0.00 61 1015.3
20260903220004 75 32 2.0 6.0 0.00 0.00 0.00 61 1015.1
20260903215503 75 44 2.0 6.0 0.00 0.00 0.00 61 1015.1
20260903215003 75 31 1.0 5.0 0.00 0.00 0.00 61 1015.2
20260903214503 75 27 2.0 5.0 0.00 0.00 0.00 61 1015.2
20260903214003 75 29 2.0 4.0 0.00 0.00 0.00 60 1015.2
20260903213504 76 31 2.0 4.0 0.00 0.00 0.00 60 1015.2
20260903213003 76 0 0.0 4.0 0.00 0.00 0.00 60 1015.3
20260903212503 76 0 0.0 4.0 0.00 0.00 0.00 59 1015.2
20260903212004 76 0 0.0 4.0 0.00 0.00 0.00 59 1015.2
20260903211503 75 208 1.0 4.0 0.00 0.00 0.00 60 1015.1
20260903211004 75 206 1.0 4.0 0.00 0.00 0.00 61 1015.2
20260903210503 75 0 0.0 3.0 0.00 0.00 0.00 62 1015.2
20260903210004 75 0 0.0 3.0 0.00 0.00 0.00 63 1015.1
20260903205503 75 196 1.0 3.0 0.00 0.00 0.00 63 1015.1
20260903205004 75 191 1.0 3.0 0.00 0.00 0.00 64 1015.0
20260903204503 75 222 1.0 3.0 0.00 0.00 0.00 64 1014.8
20260903204003 74 0 0.0 3.0 0.00 0.00 0.00 65 1014.9
20260903203504 74 0 0.0 3.0 0.00 0.00 0.00 66 1015.0
20260903203004 74 0 0.0 3.0 0.00 0.00 0.00 66 1015.1
20260903202503 74 0 0.0 4.0 0.00 0.00 0.00 67 1014.9
20260903202003 74 184 1.0 4.0 0.00 0.00 0.00 68 1015.0
20260903201503 74 197 2.0 4.0 0.00 0.00 0.00 68 1014.9
20260903201004 74 31 1.0 4.0 0.00 0.00 0.00 71 1014.9
20260903200503 74 53 3.0 4.0 0.00 0.00 0.00 71 1014.8
20260903200003 74 203 1.0 4.0 0.00 0.00 0.00 72 1014.8
20260903195503 74 214 1.0 4.0 0.00 0.00 0.00 73 1014.9
20260903195003 74 0 0.0 4.0 0.00 0.00 0.00 74 1014.9
20260903194504 74 178 1.0 4.0 0.00 0.00 0.00 74 1014.9
20260903194003 74 347 1.0 5.0 0.00 0.00 0.00 76 1014.9
20260903193503 74 0 0.0 5.0 0.00 0.00 0.00 76 1014.9
20260903193003 74 224 1.0 4.0 0.00 0.00 0.00 77 1014.9
20260903192503 74 228 1.0 4.0 0.00 0.00 0.00 78 1015.0
20260903192004 74 0 0.0 4.0 0.00 0.00 0.00 79 1015.1
20260903191503 74 39 1.0 4.0 0.00 0.00 0.00 79 1015.0
20260903191004 74 6 2.0 5.0 0.00 0.00 0.00 80 1015.0
20260903190503 74 9 1.0 5.0 0.00 0.00 0.00 81 1015.0
20260903190003 73 29 1.0 4.0 0.00 0.00 0.00 81 1015.0
20260903185503 73 0 0.0 4.0 0.00 0.00 0.00 81 1015.0
20260903185004 73 319 2.0 4.0 0.00 0.00 0.00 81 1015.0
20260903184503 73 69 1.0 4.0 0.00 0.00 0.00 81 1015.1
20260903184003 73 108 1.0 4.0 0.00 0.00 0.00 81 1014.8
20260903183504 72 0 0.0 4.0 0.00 0.00 0.00 80 1015.0
20260903183003 73 0 0.0 2.0 0.00 0.00 0.00 80 1015.1
20260903182503 73 0 0.0 2.0 0.00 0.00 0.00 80 1015.0
20260903182004 73 0 0.0 1.0 0.00 0.00 0.00 80 1014.9
20260903181503 73 0 0.0 2.0 0.00 0.00 0.00 80 1014.9
20260903181003 73 0 0.0 2.0 0.00 0.00 0.00 80 1015.0
20260903180503 73 0 0.0 4.0 0.00 0.00 0.00 80 1015.0
20260903180003 73 0 0.0 4.0 0.00 0.00 0.00 81 1015.0
20260903175504 72 181 2.0 9.0 0.00 0.00 0.00 80 1015.0
20260903175003 72 157 2.0 14.0 0.00 0.00 0.00 79 1015.1
20260903174504 72 150 4.0 17.0 0.00 0.00 0.00 80 1015.1
20260903174003 71 148 11.0 18.0 0.00 0.00 0.00 82 1015.0
20260903173503 72 146 9.0 18.0 0.00 0.00 0.00 84 1014.7
20260903173005 71 193 6.0 9.0 0.00 0.00 0.00 80 1015.7
20260903172503 70 220 1.0 15.0 0.00 0.00 0.00 75 1016.2
20260903172004 72 261 2.0 24.0 0.00 0.00 0.00 68 1017.0
20260903171504 76 265 11.0 26.0 0.00 0.00 0.00 62 1016.2
20260903171004 82 246 10.0 26.0 0.00 0.00 0.00 48 1015.2
20260903170503 88 206 4.0 10.0 0.00 0.00 0.00 35 1015.0
20260903170003 88 170 2.0 5.0 0.00 0.00 0.00 34 1014.3
20260903165504 88 149 1.0 8.0 0.00 0.00 0.00 35 1014.0
20260903165003 88 145 3.0 8.0 0.00 0.00 0.00 35 1013.5
20260903164503 88 147 3.0 8.0 0.00 0.00 0.00 34 1013.2
20260903164003 89 147 4.0 8.0 0.00 0.00 0.00 34 1013.2
20260903163504 89 140 4.0 8.0 0.00 0.00 0.00 33 1013.1
20260903163003 89 144 4.0 8.0 0.00 0.00 0.00 34 1013.1
20260903162503 89 154 2.0 8.0 0.00 0.00 0.00 33 1013.2
20260903162004 89 146 2.0 10.0 0.00 0.00 0.00 33 1013.3
20260903161504 89 161 2.0 11.0 0.00 0.00 0.00 34 1013.2
20260903161004 89 157 5.0 11.0 0.00 0.00 0.00 35 1013.2
20260903160503 89 142 2.0 9.0 0.00 0.00 0.00 33 1013.2
20260903160004 90 147 4.0 10.0 0.00 0.00 0.00 31 1013.2
20260903155503 90 151 3.0 11.0 0.00 0.00 0.00 30 1013.1
20260903155004 90 144 4.0 11.0 0.00 0.00 0.00 30 1013.1
20260903154504 91 136 4.0 11.0 0.00 0.00 0.00 30 1012.9
20260903154003 92 152 8.0 11.0 0.00 0.00 0.00 29 1012.8
20260903153503 93 152 4.0 11.0 0.00 0.00 0.00 29 1012.6
20260903153004 94 148 4.0 11.0 0.00 0.00 0.00 29 1012.5
20260903152503 96 143 4.0 11.0 0.00 0.00 0.00 25 1012.7
20260903152003 98 343 1.0 6.0 0.00 0.00 0.00 21 1012.6
20260903151504 98 287 2.0 5.0 0.00 0.00 0.00 20 1012.4
20260903151003 98 267 1.0 6.0 0.00 0.00 0.00 21 1012.5
20260903150504 98 241 3.0 6.0 0.00 0.00 0.00 20 1012.4
20260903150003 99 239 2.0 8.0 0.00 0.00 0.00 20 1012.3
20260903145503 99 288 3.0 8.0 0.00 0.00 0.00 20 1012.4
20260903145004 100 307 2.0 6.0 0.00 0.00 0.00 20 1012.3
20260903144503 100 285 2.0 6.0 0.00 0.00 0.00 19 1012.3
20260903144003 100 0 0.0 4.0 0.00 0.00 0.00 18 1012.4
20260903143503 100 238 1.0 4.0 0.00 0.00 0.00 19 1012.4
20260903143003 100 250 1.0 4.0 0.00 0.00 0.00 20 1012.5
20260903142504 100 233 1.0 9.0 0.00 0.00 0.00 22 1012.6
20260903142003 100 238 2.0 9.0 0.00 0.00 0.00 23 1012.7
20260903141503 101 0 0.0 7.0 0.00 0.00 0.00 22 1012.6
20260903141004 102 246 2.0 6.0 0.00 0.00 0.00 20 1012.7
20260903140503 102 257 4.0 7.0 0.00 0.00 0.00 16 1012.6
20260903140004 101 266 2.0 8.0 0.00 0.00 0.00 17 1012.8
20260903135503 101 255 2.0 8.0 0.00 0.00 0.00 17 1012.7
20260903135003 102 233 3.0 8.0 0.00 0.00 0.00 16 1012.7
20260903134503 102 231 2.0 7.0 0.00 0.00 0.00 17 1012.8
20260903134004 100 261 2.0 8.0 0.00 0.00 0.00 18 1012.8
20260903133504 100 267 2.0 8.0 0.00 0.00 0.00 18 1012.9
20260903133003 100 254 4.0 8.0 0.00 0.00 0.00 19 1012.9
20260903132503 101 245 3.0 8.0 0.00 0.00 0.00 18 1013.0
20260903132004 100 255 4.0 8.0 0.00 0.00 0.00 18 1013.0
20260903131504 101 256 2.0 8.0 0.00 0.00 0.00 18 1013.1
20260903131003 101 285 3.0 6.0 0.00 0.00 0.00 17 1013.0
20260903130504 100 0 0.0 6.0 0.00 0.00 0.00 18 1013.1
20260903130004 100 263 2.0 10.0 0.00 0.00 0.00 18 1013.2
20260903125503 100 269 6.0 10.0 0.00 0.00 0.00 18 1013.2
20260903125003 100 259 2.0 10.0 0.00 0.00 0.00 19 1013.2
20260903124504 99 201 4.0 9.0 0.00 0.00 0.00 19 1013.2
20260903124003 100 233 3.0 8.0 0.00 0.00 0.00 18 1013.3
20260903123503 100 267 4.0 8.0 0.00 0.00 0.00 19 1013.4
20260903123004 99 257 3.0 8.0 0.00 0.00 0.00 19 1013.4
20260903122503 100 238 2.0 8.0 0.00 0.00 0.00 19 1013.6
20260903122003 100 248 3.0 8.0 0.00 0.00 0.00 19 1013.5
20260903121504 100 234 4.0 8.0 0.00 0.00 0.00 19 1013.4
20260903121003 100 225 2.0 6.0 0.00 0.00 0.00 18 1013.5
20260903120503 101 229 4.0 6.0 0.00 0.00 0.00 16 1013.5
20260903120004 101 0 0.0 4.0 0.00 0.00 0.00 17 1013.7
20260903115503 101 271 2.0 6.0 0.00 0.00 0.00 17 1013.8
20260903115004 101 0 0.0 6.0 0.00 0.00 0.00 17 1013.9
20260903114503 101 78 2.0 5.0 0.00 0.00 0.00 17 1013.9
20260903114003 100 0 0.0 4.0 0.00 0.00 0.00 18 1014.1
20260903113503 100 19 1.0 4.0 0.00 0.00 0.00 18 1014.1
20260903113005 99 0 0.0 4.0 0.00 0.00 0.00 18 1014.2
20260903112503 99 87 1.0 6.0 0.00 0.00 0.00 18 1014.2
20260903112003 99 0 0.0 6.0 0.00 0.00 0.00 19 1014.3
20260903111504 99 91 2.0 4.0 0.00 0.00 0.00 17 1014.2
20260903111003 99 0 0.0 4.0 0.00 0.00 0.00 18 1014.3
20260903110503 98 0 0.0 4.0 0.00 0.00 0.00 18 1014.3
20260903110003 97 0 0.0 4.0 0.00 0.00 0.00 19 1014.4
20260903105503 97 118 2.0 5.0 0.00 0.00 0.00 19 1014.5
20260903105003 97 105 2.0 5.0 0.00 0.00 0.00 19 1014.6
20260903104504 97 100 2.0 5.0 0.00 0.00 0.00 18 1014.7
20260903104004 96 0 0.0 5.0 0.00 0.00 0.00 23 1014.7
20260903103503 94 158 2.0 8.0 0.00 0.00 0.00 24 1014.7
20260903103004 95 0 0.0 8.0 0.00 0.00 0.00 23 1014.8
20260903102503 96 121 3.0 7.0 0.00 0.00 0.00 23 1014.9
20260903102004 95 99 1.0 6.0 0.00 0.00 0.00 24 1014.9
20260903101504 95 103 2.0 6.0 0.00 0.00 0.00 23 1014.9
20260903101003 95 87 3.0 6.0 0.00 0.00 0.00 24 1015.0
20260903100503 95 113 1.0 5.0 0.00 0.00 0.00 26 1015.1
20260903100004 94 116 2.0 5.0 0.00 0.00 0.00 27 1015.2
20260903095503 94 106 2.0 4.0 0.00 0.00 0.00 27 1015.2
20260903095003 94 0 0.0 4.0 0.00 0.00 0.00 30 1015.3
20260903094504 93 0 0.0 4.0 0.00 0.00 0.00 33 1015.4
20260903094003 93 48 1.0 4.0 0.00 0.00 0.00 32 1015.5
20260903093504 92 0 0.0 3.0 0.00 0.00 0.00 34 1015.7
20260903093003 92 295 1.0 7.0 0.00 0.00 0.00 35 1015.7
20260903092504 91 202 1.0 7.0 0.00 0.00 0.00 35 1015.7
20260903092003 90 61 1.0 6.0 0.00 0.00 0.00 36 1015.8
20260903091503 90 40 1.0 6.0 0.00 0.00 0.00 37 1015.8
20260903091003 90 23 1.0 8.0 0.00 0.00 0.00 38 1015.9
20260903090504 89 276 2.0 8.0 0.00 0.00 0.00 38 1015.8
20260903090003 89 232 2.0 8.0 0.00 0.00 0.00 38 1015.8
20260903085504 89 244 2.0 8.0 0.00 0.00 0.00 39 1015.9
20260903085003 89 235 2.0 8.0 0.00 0.00 0.00 40 1015.9
20260903084503 88 275 1.0 6.0 0.00 0.00 0.00 42 1016.0
20260903084004 87 337 2.0 5.0 0.00 0.00 0.00 41 1016.0
20260903083504 87 74 2.0 7.0 0.00 0.00 0.00 42 1016.1
20260903083003 87 124 2.0 9.0 0.00 0.00 0.00 41 1016.0
20260903082503 87 143 3.0 9.0 0.00 0.00 0.00 41 1015.9
20260903082003 87 80 2.0 9.0 0.00 0.00 0.00 41 1016.0
20260903081503 87 114 2.0 7.0 0.00 0.00 0.00 42 1016.0
20260903081004 86 262 1.0 7.0 0.00 0.00 0.00 44 1016.1
20260903080503 85 329 2.0 8.0 0.00 0.00 0.00 44 1015.9
20260903080003 85 346 2.0 9.0 0.00 0.00 0.00 45 1015.9
20260903075504 84 8 5.0 9.0 0.00 0.00 0.00 44 1016.1
20260903075004 84 326 2.0 9.0 0.00 0.00 0.00 45 1016.1
20260903074503 84 258 3.0 6.0 0.00 0.00 0.00 46 1016.1
20260903074004 84 316 2.0 6.0 0.00 0.00 0.00 46 1016.2
20260903073504 84 351 2.0 7.0 0.00 0.00 0.00 46 1016.1
20260903073003 83 358 1.0 7.0 0.00 0.00 0.00 47 1016.1
20260903072503 83 311 2.0 7.0 0.00 0.00 0.00 47 1016.2
20260903072003 83 326 1.0 6.0 0.00 0.00 0.00 48 1016.2
20260903071504 83 318 2.0 6.0 0.00 0.00 0.00 47 1016.0
20260903071004 83 204 1.0 5.0 0.00 0.00 0.00 46 1016.1
20260903070503 84 212 2.0 4.0 0.00 0.00 0.00 47 1016.1
20260903070003 83 200 2.0 4.0 0.00 0.00 0.00 47 1016.1
20260903065503 83 184 1.0 5.0 0.00 0.00 0.00 48 1016.1
20260903065003 83 343 2.0 5.0 0.00 0.00 0.00 48 1016.1
20260903064504 82 334 2.0 6.0 0.00 0.00 0.00 48 1016.0
20260903064003 82 358 2.0 6.0 0.00 0.00 0.00 49 1015.8
20260903063504 82 69 2.0 4.0 0.00 0.00 0.00 50 1015.9
20260903063003 82 84 2.0 7.0 0.00 0.00 0.00 50 1015.9
20260903062503 81 89 1.0 7.0 0.00 0.00 0.00 51 1016.0
20260903062004 80 79 2.0 7.0 0.00 0.00 0.00 54 1016.2
20260903061503 80 54 2.0 9.0 0.00 0.00 0.00 54 1016.2
20260903061004 80 47 2.0 9.0 0.00 0.00 0.00 53 1016.0
20260903060503 80 44 3.0 7.0 0.00 0.00 0.00 53 1016.2
20260903060003 79 38 2.0 10.0 0.00 0.00 0.00 55 1016.2
20260903055504 79 36 4.0 10.0 0.00 0.00 0.00 54 1016.3
20260903055004 78 36 2.0 11.0 0.00 0.00 0.00 56 1016.2
20260903054503 78 31 2.0 11.0 0.00 0.00 0.00 57 1016.2
20260903054003 78 28 3.0 9.0 0.00 0.00 0.00 58 1016.4
20260903053503 78 52 4.0 10.0 0.00 0.00 0.00 58 1016.3
20260903053004 77 53 2.0 10.0 0.00 0.00 0.00 60 1016.4
20260903052504 77 35 2.0 10.0 0.00 0.00 0.00 60 1016.5
20260903052004 77 39 2.0 9.0 0.00 0.00 0.00 61 1016.5
20260903051503 76 49 1.0 8.0 0.00 0.00 0.00 62 1016.7
20260903051003 76 51 2.0 10.0 0.00 0.00 0.00 63 1016.7
20260903050505 76 61 2.0 10.0 0.00 0.00 0.00 63 1016.7
20260903050003 76 84 3.0 8.0 0.00 0.00 0.00 63 1016.8
20260903045503 76 11 4.0 8.0 0.00 0.00 0.00 63 1016.7
20260903045003 75 14 1.0 7.0 0.00 0.00 0.00 64 1016.7
20260903044503 75 20 1.0 8.0 0.00 0.00 0.00 64 1016.6
20260903044003 75 86 2.0 9.0 0.00 0.00 0.00 64 1016.6
20260903043504 75 168 2.0 9.0 0.00 0.00 0.00 65 1016.6
20260903043003 74 8 2.0 8.0 0.00 0.00 0.00 64 1016.6
20260903042503 74 29 3.0 11.0 0.00 0.00 0.00 64 1016.6
20260903042003 74 28 4.0 11.0 0.00 0.00 0.00 64 1016.5
20260903041503 74 27 2.0 11.0 0.00 0.00 0.00 64 1016.4
20260903041004 74 31 2.0 10.0 0.00 0.00 0.00 64 1016.5
20260903040503 75 14 2.0 11.0 0.00 0.00 0.00 63 1016.4
20260903040003 75 29 1.0 11.0 0.00 0.00 0.00 62 1016.4
20260903035503 75 56 3.0 6.0 0.00 0.00 0.00 63 1016.3
20260903035004 75 116 1.0 5.0 0.00 0.00 0.00 63 1016.3
20260903034503 75 107 1.0 7.0 0.00 0.00 0.00 63 1016.3
20260903034003 74 75 2.0 7.0 0.00 0.00 0.00 65 1016.4
20260903033503 74 75 1.0 5.0 0.00 0.00 0.00 64 1016.3
20260903033004 74 95 2.0 4.0 0.00 0.00 0.00 64 1016.4
20260903032504 74 77 2.0 7.0 0.00 0.00 0.00 65 1016.4
20260903032003 74 63 2.0 7.0 0.00 0.00 0.00 65 1016.4
20260903031503 74 70 2.0 11.0 0.00 0.00 0.00 65 1016.4
20260903031004 74 55 1.0 11.0 0.00 0.00 0.00 65 1016.5
20260903030503 74 35 4.0 11.0 0.00 0.00 0.00 65 1016.5
20260903030003 74 30 2.0 11.0 0.00 0.00 0.00 65 1016.5
20260903025503 75 49 4.0 11.0 0.00 0.00 0.00 64 1016.6
20260903025004 75 65 5.0 11.0 0.00 0.00 0.00 64 1016.6
20260903024503 75 59 2.0 11.0 0.00 0.00 0.00 63 1016.5
20260903024003 76 29 2.0 8.0 0.00 0.00 0.00 62 1016.6
20260903023503 76 25 2.0 8.0 0.00 0.00 0.00 61 1016.4
20260903023004 76 68 2.0 5.0 0.00 0.00 0.00 60 1016.5
20260903022504 76 87 2.0 4.0 0.00 0.00 0.00 60 1016.6
20260903022004 76 40 1.0 4.0 0.00 0.00 0.00 59 1016.4
20260903021503 76 36 1.0 4.0 0.00 0.00 0.00 59 1016.4
20260903021004 76 48 1.0 4.0 0.00 0.00 0.00 58 1016.4
20260903020503 77 0 0.0 5.0 0.00 0.00 0.00 58 1016.4
20260903020003 77 0 0.0 5.0 0.00 0.00 0.00 57 1016.3
20260903015503 77 39 2.0 9.0 0.00 0.00 0.00 57 1016.3
20260903015004 78 61 1.0 9.0 0.00 0.00 0.00 56 1016.1
20260903014503 78 154 2.0 8.0 0.00 0.00 0.00 55 1016.0
20260903014003 78 199 2.0 7.0 0.00 0.00 0.00 56 1015.8
20260903013504 78 272 2.0 6.0 0.00 0.00 0.00 56 1015.9
20260903013003 78 241 2.0 5.0 0.00 0.00 0.00 56 1015.8
20260903012503 78 199 2.0 4.0 0.00 0.00 0.00 57 1015.9
20260903012003 78 0 0.0 6.0 0.00 0.00 0.00 56 1015.8
20260903011503 78 0 0.0 8.0 0.00 0.00 0.00 56 1015.9
20260903011004 78 169 2.0 10.0 0.00 0.00 0.00 55 1016.0
20260903010503 78 124 2.0 17.0 0.00 0.00 0.00 54 1016.1
20260903010003 78 115 4.0 17.0 0.00 0.00 0.00 55 1015.9
20260903005503 78 114 6.0 16.0 0.00 0.00 0.00 57 1016.0
20260903005004 78 123 6.0 11.0 0.00 0.00 0.00 57 1016.1
20260903004504 78 117 2.0 11.0 0.00 0.00 0.00 57 1016.2
20260903004003 78 230 1.0 7.0 0.00 0.00 0.00 57 1016.8
20260903003503 78 282 3.0 7.0 0.00 0.00 0.00 57 1017.1
20260903003004 78 86 1.0 11.0 0.00 0.00 0.00 57 1017.0
20260903002503 78 76 1.0 15.0 0.00 0.00 0.00 57 1016.8
20260903002003 78 63 4.0 15.0 0.00 0.00 0.00 58 1016.8
20260903001503 77 85 4.0 11.0 0.00 0.00 0.00 59 1016.7